STARLINK-5699, 55449

Orbit data source: Space-Track

STARLINK-5699, 55449 is a payload satellite owned by SpaceX/Seattle (US) in LEO that was launched on Thu, 02 Feb 2023 UTC via an FALCON 9 launch vehicle from the Air Force Eastern Test Range (AFETR). Payload-class satellites include a variety of spacecraft equipped with specific instruments for various scientific and technological missions. These include communications satellites like Starlink; space stations such as the ISS; scientific satellites like the Hubble; Earth observation satellites from companies like Planet Labs, Umbra, and HawkEye 360; GPS; miniature CubeSats for education and research; and military/defense satellites.

Loading next visibility...
Identifier
55449, 2023-015A
Orbit
LEO
Country
Flag of USUS
Related business
Manufacturer
SpaceX/Seattle
Mission
Operational Commercial Communications
Bus & Motor
STARLINK, Unknown motor
Mass
305 kg wet, ~290 kg dry
Launch date (UTC)
2023-02-02 (3 years ago)
Launch vehicle
FALCON 9
Launch site
Air Force Eastern Test Range (AFETR)
Object type
Payload
Rocket body
Debris
Shape & HBR
Box + 1 Pan, 10.1 m
Radar Cross Section
13.562 m², Large (>1 m²)

Expand to show TLE details & history
Last TLE update: 16 hours ago

TLE from 16 hours ago
0 STARLINK-5699
1 55449U 23015A   25303.02548889  .00000151  00000-0  26262-4 0  9994
2 55449  43.0045 316.4200 0000940 265.9009  94.1726 15.02533900152033
Epoch: 2025-10-30T00:36Z
TLE epoch observation values (Epoch: 2025-10-30T00:36:42.240Z)
Latitude
Longitude
-91.34619°
Altitude
558.912 km
Speed
7.584 km/s
True Right ascension
21h 05m 40s
True Declination
0° 00' 00"
Sunlit
Object was in daylight at epoch
Visualization orbit readout
Latitude
Unknown
Longitude
Unknown
Altitude
Unknown
Speed
Unknown
Apparent Right ascension
Unknown
Apparent Declination
Unknown
Sunlit
N/A
Visualization observer readout
Local Sidereal Time
12:06:24
Azimuth
Unknown
Elevation
Unknown
Doppler factor
Unknown
Orbital elements
Apogee altitude
561.661 km
Perigee altitude
560.357 km
Semi-major axis
6,939.146 km
Eccentricity
0.00009
Inclination
43.0045°
RAAN
316.42°
Arg. of periapsis
265.9009°
True anomaly
94.18334°
Mean anomaly
94.1726°
Eccentric anomaly
94.17797°
Mean motion
3.75478 °/min
Orbital period
95.88 mins
BSTAR
0.000026262
Loading maneuver chart data...
Computing Atmospheric mass density...
Loading historical data...
Loading historical data...
Loading historical data...
Loading historical data...
Loading historical data...
Loading historical data...
Loading historical data...

Documentation

Showing up to 5 results
|